Location: Rounton
(54.4000°N, 1.3500°W)
Time: 21:50:00
(UTC+00:00)

Tiros 1 despin weight - Pass Details

Date: 01 December 2021
Orbit: 592 x 641 km, 48.2° (Epoch: 16 January)

Event Time Altitude Azimuth Distance (km) Brightness Sun altitude
Rises 19:36:22 0° 271° (W) 2,829 ? -32.4°
Reaches altitude 10° 19:39:20 10° 250° (WSW) 1,928 ? -32.8°
Enters shadow 19:40:53 15° 231° (SW) 1,633 ? -33.0°
Maximum altitude 19:42:06 16° 211° (SSW) 1,555 - -33.2°
Drops below altitude 10° 19:44:52 10° 172° (S) 1,935 - -33.6°
Sets 19:47:52 0° 152° (SSE) 2,844 - -34.0°
